JUGNU

Last updated on Sun Aug 31 2025 00:03:10 GMT+0000 (Coordinated Universal Time)

1 37839U 11058B 25242.13765707 .00000516 00000+0 13030-3 0 9997 2 37839 19.9604 276.4856 0018833 102.0099 291.4815 14.13629251717798
UTC large
Height (km)
Speed (km/s)
/
Latitude / Longitude
Inclination (degrees)
Orbital Period (minutes)
Azimuth
Elevation
Range (km)
Doppler Factor

Next 0 passes for location: London (51.5072 / 0.1276)

Sorry there are no passes over London.